,,PressureMeas_1m,,PRMeasQMR101_1,,RHStat155_1m_1,,SRMeasQMS101R_1m,,TAStat155_1m_1,,GenWind_1,,GenWind_1,
2017-04-13, 00:00:06,VALID,918.96,VALID,0.0,VALID,92.708,VALID,-0.025,VALID,20.01,VALID,287.0,VALID,0.001,
2017-04-13, 00:01:06,VALID,918.952,VALID,0.0,VALID,92.49,VALID,-0.03,VALID,19.956,VALID,348.0,VALID,0.162,
2017-04-13, 00:02:06,VALID,918.944,VALID,0.0,VALID,92.021,VALID,-0.036,VALID,19.973,VALID,41.0,VALID,0.509,
2017-04-13, 00:03:06,VALID,918.944,VALID,0.0,VALID,92.072,VALID,-0.022,VALID,19.947,VALID,27.0,VALID,1.021,
2017-04-13, 00:04:06,VALID,918.945,VALID,0.0,VALID,91.744,VALID,-0.033,VALID,19.995,VALID,16.0,VALID,0.967,
2017-04-13, 00:05:06,VALID,918.933,VALID,0.0,VALID,91.539,VALID,-0.031,VALID,20.066,VALID,26.0,VALID,0.709,
2017-04-13, 00:06:06,VALID,918.92,VALID,0.0,VALID,91.372,VALID,-0.018,VALID,20.074,VALID,45.0,VALID,0.59,
2017-04-13, 00:07:06,VALID,918.912,VALID,0.0,VALID,91.339,VALID,-0.027,VALID,20.07,VALID,69.0,VALID,0.23,
2017-04-13, 00:08:06,VALID,918.909,VALID,0.0,VALID,91.462,VALID,-0.037,VALID,20.05,VALID,69.0,VALID,0.22,
2017-04-13, 00:09:06,VALID,918.902,VALID,0.0,VALID,91.755,VALID,-0.021,VALID,20.005,VALID,41.0,VALID,0.314,
2017-04-13, 00:10:06,VALID,918.889,VALID,0.0,VALID,91.555,VALID,-0.008,VALID,20.003,VALID,32.0,VALID,0.103,
2017-04-13, 00:11:06,VALID,918.882,VALID,0.0,VALID,91.475,VALID,-0.024,VALID,20.018,VALID,32.0,VALID,0.048,
2017-04-13, 00:12:06,VALID,918.879,VALID,0.0,VALID,91.418,VALID,-0.026,VALID,20.039,VALID,32.0,VALID,0.0,
2017-04-13, 00:13:06,VALID,918.881,VALID,0.0,VALID,91.465,VALID,-0.028,VALID,20.048,VALID,32.0,VALID,0.004,
2017-04-13, 00:14:06,VALID,918.867,VALID,0.0,VALID,91.436,VALID,-0.036,VALID,20.042,VALID,32.0,VALID,0.013,
2017-04-13, 00:15:06,VALID,918.865,VALID,0.0,VALID,91.51,VALID,-0.029,VALID,20.041,VALID,32.0,VALID,0.001,
2017-04-13, 00:16:06,VALID,918.867,VALID,0.0,VALID,91.38,VALID,-0.018,VALID,20.047,VALID,33.0,VALID,0.043,
2017-04-13, 00:17:06,VALID,918.861,VALID,0.0,VALID,91.241,VALID,-0.029,VALID,20.067,VALID,33.0,VALID,0.013,
2017-04-13, 00:18:06,VALID,918.837,VALID,0.0,VALID,91.245,VALID,-0.017,VALID,20.07,VALID,33.0,VALID,0.002,
2017-04-13, 00:19:06,VALID,918.823,VALID,0.0,VALID,91.369,VALID,-0.03,VALID,20.063,VALID,33.0,VALID,0.017,
2017-04-13, 00:20:06,VALID,918.809,VALID,0.0,VALID,91.352,VALID,-0.024,VALID,20.079,VALID,33.0,VALID,0.003,
2017-04-13, 00:21:06,VALID,918.797,VALID,0.0,VALID,91.811,VALID,-0.015,VALID,20.088,VALID,33.0,VALID,0.0,
2017-04-13, 00:22:06,VALID,918.796,VALID,0.0,VALID,91.936,VALID,-0.025,VALID,20.091,VALID,33.0,VALID,0.0,
2017-04-13, 00:23:06,VALID,918.77,VALID,0.0,VALID,92.062,VALID,-0.048,VALID,20.093,VALID,33.0,VALID,0.0,
2017-04-13, 00:24:06,VALID,918.774,VALID,0.0,VALID,92.595,VALID,-0.045,VALID,20.109,VALID,33.0,VALID,0.0,
2017-04-13, 00:25:06,VALID,918.744,VALID,0.0,VALID,92.319,VALID,-0.045,VALID,20.101,VALID,33.0,VALID,0.0,
2017-04-13, 00:26:06,VALID,918.706,VALID,0.0,VALID,91.935,VALID,-0.041,VALID,20.109,VALID,33.0,VALID,0.0,
2017-04-13, 00:27:06,VALID,918.697,VALID,0.0,VALID,92.491,VALID,-0.043,VALID,20.128,VALID,60.0,VALID,0.083,
2017-04-13, 00:28:06,VALID,918.68,VALID,0.0,VALID,92.827,VALID,-0.044,VALID,20.12,VALID,117.0,VALID,0.104,
2017-04-13, 00:29:06,VALID,918.671,VALID,0.0,VALID,92.611,VALID,-0.037,VALID,20.108,VALID,118.0,VALID,0.001,
2017-04-13, 00:30:06,VALID,918.648,VALID,0.0,VALID,92.492,VALID,-0.032,VALID,20.117,VALID,118.0,VALID,0.045,
2017-04-13, 00:31:06,VALID,918.639,VALID,0.0,VALID,91.091,VALID,-0.04,VALID,20.131,VALID,118.0,VALID,0.183,
2017-04-13, 00:32:06,VALID,918.638,VALID,0.0,VALID,92.353,VALID,-0.028,VALID,20.119,VALID,113.0,VALID,0.523,
2017-04-13, 00:33:06,VALID,918.637,VALID,0.0,VALID,93.159,VALID,-0.032,VALID,20.011,VALID,106.0,VALID,0.371,
2017-04-13, 00:34:06,VALID,918.631,VALID,0.0,VALID,93.799,VALID,-0.029,VALID,19.931,VALID,105.0,VALID,0.093,
2017-04-13, 00:35:06,VALID,918.625,VALID,0.0,VALID,94.068,VALID,-0.039,VALID,19.895,VALID,105.0,VALID,0.062,
2017-04-13, 00:36:06,VALID,918.619,VALID,0.0,VALID,94.222,VALID,-0.015,VALID,19.895,VALID,106.0,VALID,0.036,
2017-04-13, 00:37:06,VALID,918.625,VALID,0.0,VALID,94.067,VALID,0.004,VALID,19.922,VALID,68.0,VALID,0.029,
2017-04-13, 00:38:06,VALID,918.631,VALID,0.0,VALID,93.822,VALID,-0.005,VALID,19.941,VALID,8.0,VALID,0.188,
2017-04-13, 00:39:06,VALID,918.634,VALID,0.0,VALID,91.704,VALID,-0.003,VALID,20.001,VALID,319.0,VALID,0.452,
2017-04-13, 00:40:06,VALID,918.61,VALID,0.0,VALID,91.433,VALID,0.002,VALID,20.15,VALID,303.0,VALID,0.25,
2017-04-13, 00:41:06,VALID,918.579,VALID,0.0,VALID,91.461,VALID,0.01,VALID,20.234,VALID,303.0,VALID,0.263,
2017-04-13, 00:42:06,VALID,918.543,VALID,0.0,VALID,91.738,VALID,0.003,VALID,20.254,VALID,303.0,VALID,0.075,
2017-04-13, 00:43:06,VALID,918.521,VALID,0.0,VALID,91.367,VALID,-0.003,VALID,20.248,VALID,308.0,VALID,0.034,
2017-04-13, 00:44:06,VALID,918.512,VALID,0.0,VALID,92.382,VALID,-0.002,VALID,20.241,VALID,2.0,VALID,0.03,
2017-04-13, 00:45:06,VALID,918.506,VALID,0.0,VALID,92.677,VALID,-0.013,VALID,20.206,VALID,2.0,VALID,0.014,
2017-04-13, 00:46:06,VALID,918.498,VALID,0.0,VALID,92.956,VALID,-0.001,VALID,20.182,VALID,1.0,VALID,0.014,
2017-04-13, 00:47:06,VALID,918.483,VALID,0.0,VALID,91.785,VALID,-0.001,VALID,20.162,VALID,291.0,VALID,0.173,
2017-04-13, 00:48:06,VALID,918.474,VALID,0.0,VALID,91.842,VALID,-0.011,VALID,20.169,VALID,262.0,VALID,0.028,
2017-04-13, 00:49:06,VALID,918.453,VALID,0.0,VALID,91.397,VALID,-0.015,VALID,20.169,VALID,262.0,VALID,0.0,
2017-04-13, 00:50:06,VALID,918.423,VALID,0.0,VALID,90.693,VALID,-0.009,VALID,20.189,VALID,262.0,VALID,0.039,
2017-04-13, 00:51:06,VALID,918.397,VALID,0.0,VALID,91.276,VALID,-0.006,VALID,20.225,VALID,262.0,VALID,0.006,
2017-04-13, 00:52:06,VALID,918.38,VALID,0.0,VALID,91.062,VALID,-0.003,VALID,20.222,VALID,262.0,VALID,0.0,
2017-04-13, 00:53:06,VALID,918.341,VALID,0.0,VALID,92.357,VALID,-0.016,VALID,20.232,VALID,262.0,VALID,0.0,
2017-04-13, 00:54:06,VALID,918.321,VALID,0.0,VALID,92.868,VALID,-0.015,VALID,20.196,VALID,262.0,VALID,0.0,
2017-04-13, 00:55:06,VALID,918.298,VALID,0.0,VALID,93.205,VALID,-0.017,VALID,20.142,VALID,262.0,VALID,0.0,
2017-04-13, 00:56:06,VALID,918.284,VALID,0.0,VALID,92.589,VALID,-0.021,VALID,20.081,VALID,262.0,VALID,0.01,
2017-04-13, 00:57:06,VALID,918.267,VALID,0.0,VALID,92.235,VALID,-0.014,VALID,20.022,VALID,208.0,VALID,0.144,
2017-04-13, 00:58:06,VALID,918.237,VALID,0.0,VALID,92.616,VALID,-0.009,VALID,19.986,VALID,148.0,VALID,0.34,
2017-04-13, 00:59:06,VALID,918.209,VALID,0.0,VALID,92.663,VALID,-0.003,VALID,19.963,VALID,130.0,VALID,0.482,
2017-04-13, 01:00:06,VALID,918.184,VALID,0.0,VALID,93.591,VALID,-0.012,VALID,19.974,VALID,111.0,VALID,0.629,
2017-04-13, 01:01:06,VALID,918.157,VALID,0.0,VALID,93.925,VALID,-0.009,VALID,19.935,VALID,100.0,VALID,0.494,
2017-04-13, 01:02:06,VALID,918.132,VALID,0.0,VALID,93.96,VALID,-0.008,VALID,19.89,VALID,100.0,VALID,0.565,
2017-04-13, 01:03:06,VALID,918.117,VALID,0.0,VALID,93.789,VALID,-0.019,VALID,19.884,VALID,107.0,VALID,0.524,
2017-04-13, 01:04:06,VALID,918.097,VALID,0.0,VALID,94.277,VALID,-0.007,VALID,19.884,VALID,111.0,VALID,0.48,
2017-04-13, 01:05:06,VALID,918.081,VALID,0.0,VALID,94.52,VALID,0.002,VALID,19.873,VALID,114.0,VALID,0.241,
2017-04-13, 01:06:06,VALID,918.065,VALID,0.0,VALID,94.575,VALID,-0.008,VALID,19.852,VALID,114.0,VALID,0.213,
2017-04-13, 01:07:06,VALID,918.047,VALID,0.0,VALID,94.396,VALID,-0.006,VALID,19.811,VALID,85.0,VALID,0.342,
2017-04-13, 01:08:06,VALID,918.031,VALID,0.0,VALID,94.637,VALID,-0.006,VALID,19.774,VALID,76.0,VALID,0.341,
2017-04-13, 01:09:06,VALID,918.002,VALID,0.0,VALID,94.685,VALID,-0.004,VALID,19.749,VALID,76.0,VALID,0.029,
2017-04-13, 01:10:06,VALID,917.975,VALID,0.0,VALID,94.374,VALID,-0.004,VALID,19.713,VALID,76.0,VALID,0.24,
2017-04-13, 01:11:06,VALID,917.959,VALID,0.0,VALID,94.393,VALID,-0.008,VALID,19.672,VALID,55.0,VALID,0.36,
2017-04-13, 01:12:06,VALID,917.947,VALID,0.0,VALID,94.557,VALID,0.001,VALID,19.641,VALID,51.0,VALID,0.107,
2017-04-13, 01:13:06,VALID,917.943,VALID,0.0,VALID,94.721,VALID,0.0,VALID,19.627,VALID,45.0,VALID,0.077,
2017-04-13, 01:14:06,VALID,917.936,VALID,0.0,VALID,94.931,VALID,-0.013,VALID,19.614,VALID,35.0,VALID,0.149,
2017-04-13, 01:15:06,VALID,917.924,VALID,0.0,VALID,95.257,VALID,-0.008,VALID,19.593,VALID,35.0,VALID,0.277,
2017-04-13, 01:16:06,VALID,917.915,VALID,0.0,VALID,95.398,VALID,-0.004,VALID,19.563,VALID,48.0,VALID,0.305,
2017-04-13, 01:17:06,VALID,917.915,VALID,0.0,VALID,95.713,VALID,0.003,VALID,19.561,VALID,46.0,VALID,0.072,
2017-04-13, 01:18:06,VALID,917.923,VALID,0.0,VALID,95.61,VALID,0.007,VALID,19.541,VALID,45.0,VALID,0.032,
2017-04-13, 01:19:06,VALID,917.907,VALID,0.0,VALID,95.821,VALID,-0.014,VALID,19.551,VALID,45.0,VALID,0.0,
2017-04-13, 01:20:06,VALID,917.913,VALID,0.0,VALID,95.828,VALID,-0.006,VALID,19.566,VALID,45.0,VALID,0.0,
2017-04-13, 01:21:06,VALID,917.896,VALID,0.0,VALID,95.803,VALID,-0.008,VALID,19.573,VALID,62.0,VALID,0.019,
2017-04-13, 01:22:06,VALID,917.868,VALID,0.0,VALID,95.842,VALID,-0.018,VALID,19.587,VALID,161.0,VALID,0.15,
2017-04-13, 01:23:06,VALID,917.855,VALID,0.0,VALID,95.747,VALID,-0.038,VALID,19.578,VALID,161.0,VALID,0.122,
2017-04-13, 01:24:06,VALID,917.851,VALID,0.0,VALID,95.814,VALID,-0.024,VALID,19.59,VALID,161.0,VALID,0.014,
2017-04-13, 01:25:06,VALID,917.829,VALID,0.0,VALID,95.749,VALID,-0.031,VALID,19.6,VALID,161.0,VALID,0.0,
2017-04-13, 01:26:06,VALID,917.816,VALID,0.0,VALID,95.597,VALID,-0.026,VALID,19.602,VALID,161.0,VALID,0.0,
2017-04-13, 01:27:06,VALID,917.815,VALID,0.0,VALID,95.145,VALID,-0.006,VALID,19.604,VALID,160.0,VALID,0.011,
2017-04-13, 01:28:06,VALID,917.796,VALID,0.0,VALID,95.074,VALID,-0.018,VALID,19.646,VALID,154.0,VALID,0.094,
2017-04-13, 01:29:06,VALID,917.787,VALID,0.0,VALID,94.798,VALID,-0.027,VALID,19.674,VALID,129.0,VALID,0.303,
2017-04-13, 01:30:06,VALID,917.772,VALID,0.0,VALID,94.76,VALID,-0.023,VALID,19.703,VALID,125.0,VALID,0.203,
2017-04-13, 01:31:06,VALID,917.769,VALID,0.0,VALID,94.941,VALID,-0.029,VALID,19.732,VALID,125.0,VALID,0.007,
2017-04-13, 01:32:06,VALID,917.756,VALID,0.0,VALID,95.001,VALID,-0.032,VALID,19.742,VALID,125.0,VALID,0.104,
2017-04-13, 01:33:06,VALID,917.755,VALID,0.0,VALID,94.969,VALID,-0.035,VALID,19.714,VALID,125.0,VALID,0.136,
2017-04-13, 01:34:06,VALID,917.751,VALID,0.0,VALID,95.049,VALID,-0.027,VALID,19.701,VALID,117.0,VALID,0.24,
2017-04-13, 01:35:06,VALID,917.755,VALID,0.0,VALID,95.246,VALID,-0.03,VALID,19.682,VALID,90.0,VALID,0.228,
2017-04-13, 01:36:06,VALID,917.746,VALID,0.0,VALID,95.632,VALID,0.015,VALID,19.678,VALID,86.0,VALID,0.22,
2017-04-13, 01:37:06,VALID,917.748,VALID,0.0,VALID,95.26,VALID,0.035,VALID,19.657,VALID,81.0,VALID,0.454,
2017-04-13, 01:38:06,VALID,917.739,VALID,0.0,VALID,95.346,VALID,0.022,VALID,19.683,VALID,66.0,VALID,0.596,
2017-04-13, 01:39:06,VALID,917.742,VALID,0.0,VALID,95.11,VALID,0.026,VALID,19.675,VALID,52.0,VALID,0.634,
2017-04-13, 01:40:06,VALID,917.752,VALID,0.0,VALID,94.841,VALID,0.016,VALID,19.722,VALID,49.0,VALID,0.46,
2017-04-13, 01:41:06,VALID,917.754,VALID,0.0,VALID,94.391,VALID,0.011,VALID,19.787,VALID,50.0,VALID,0.451,
2017-04-13, 01:42:06,VALID,917.757,VALID,0.0,VALID,93.991,VALID,0.017,VALID,19.864,VALID,50.0,VALID,0.471,
2017-04-13, 01:43:06,VALID,917.769,VALID,0.0,VALID,94.169,VALID,0.026,VALID,19.887,VALID,49.0,VALID,0.515,
2017-04-13, 01:44:06,VALID,917.778,VALID,0.0,VALID,93.718,VALID,0.048,VALID,19.897,VALID,47.0,VALID,0.352,
2017-04-13, 01:45:06,VALID,917.782,VALID,0.0,VALID,93.506,VALID,0.027,VALID,19.977,VALID,47.0,VALID,0.056,
2017-04-13, 01:46:06,VALID,917.783,VALID,0.0,VALID,93.554,VALID,0.022,VALID,20.042,VALID,107.0,VALID,0.086,
2017-04-13, 01:47:06,VALID,917.784,VALID,0.0,VALID,93.899,VALID,0.03,VALID,20.07,VALID,159.0,VALID,0.0,
2017-04-13, 01:48:06,VALID,917.781,VALID,0.0,VALID,94.119,VALID,0.021,VALID,20.067,VALID,159.0,VALID,0.0,
2017-04-13, 01:49:06,VALID,917.787,VALID,0.0,VALID,94.109,VALID,0.026,VALID,20.064,VALID,163.0,VALID,0.0,
2017-04-13, 01:50:06,VALID,917.771,VALID,0.0,VALID,93.562,VALID,0.028,VALID,20.067,VALID,166.0,VALID,0.0,
2017-04-13, 01:51:06,VALID,917.771,VALID,0.0,VALID,93.841,VALID,0.005,VALID,20.1,VALID,166.0,VALID,0.0,
2017-04-13, 01:52:06,VALID,917.754,VALID,0.0,VALID,93.741,VALID,-0.001,VALID,20.115,VALID,114.0,VALID,0.0,
2017-04-13, 01:53:06,VALID,917.752,VALID,0.0,VALID,92.866,VALID,0.003,VALID,20.142,VALID,102.0,VALID,0.0,
2017-04-13, 01:54:06,VALID,917.748,VALID,0.0,VALID,92.624,VALID,0.0,VALID,20.204,VALID,101.0,VALID,0.0,
2017-04-13, 01:55:06,VALID,917.734,VALID,0.0,VALID,92.619,VALID,0.012,VALID,20.21,VALID,118.0,VALID,0.384,
2017-04-13, 01:56:06,VALID,917.716,VALID,0.0,VALID,92.831,VALID,0.018,VALID,20.166,VALID,110.0,VALID,0.264,
2017-04-13, 01:57:06,VALID,917.727,VALID,0.0,VALID,93.715,VALID,0.001,VALID,20.129,VALID,108.0,VALID,0.001,
2017-04-13, 01:58:06,VALID,917.719,VALID,0.0,VALID,93.714,VALID,-0.017,VALID,20.086,VALID,71.0,VALID,0.135,
2017-04-13, 01:59:06,VALID,917.718,VALID,0.0,VALID,93.871,VALID,-0.013,VALID,20.092,VALID,61.0,VALID,0.038,
2017-04-13, 02:00:06,VALID,917.684,VALID,0.0,VALID,94.103,VALID,-0.006,VALID,20.094,VALID,61.0,VALID,0.015,
2017-04-13, 02:01:06,VALID,917.693,VALID,0.0,VALID,93.751,VALID,0.013,VALID,20.092,VALID,42.0,VALID,0.213,
2017-04-13, 02:02:06,VALID,917.679,VALID,0.0,VALID,92.935,VALID,-0.001,VALID,20.144,VALID,11.0,VALID,0.343,
2017-04-13, 02:03:06,VALID,917.696,VALID,0.0,VALID,92.821,VALID,-0.014,VALID,20.249,VALID,334.0,VALID,0.129,
2017-04-13, 02:04:06,VALID,917.691,VALID,0.0,VALID,93.021,VALID,-0.002,VALID,20.292,VALID,269.0,VALID,0.173,
2017-04-13, 02:05:06,VALID,917.679,VALID,0.0,VALID,92.189,VALID,-0.019,VALID,20.315,VALID,283.0,VALID,0.178,
2017-04-13, 02:06:06,VALID,917.666,VALID,0.0,VALID,92.569,VALID,0.014,VALID,20.356,VALID,288.0,VALID,0.0,
2017-04-13, 02:07:06,VALID,917.671,VALID,0.0,VALID,91.977,VALID,0.023,VALID,20.356,VALID,272.0,VALID,0.261,
2017-04-13, 02:08:06,VALID,917.67,VALID,0.0,VALID,92.227,VALID,0.027,VALID,20.326,VALID,253.0,VALID,0.127,
2017-04-13, 02:09:06,VALID,917.673,VALID,0.0,VALID,92.63,VALID,0.023,VALID,20.3,VALID,253.0,VALID,0.0,
2017-04-13, 02:10:06,VALID,917.68,VALID,0.0,VALID,92.41,VALID,0.026,VALID,20.295,VALID,253.0,VALID,0.0,
2017-04-13, 02:11:06,VALID,917.652,VALID,0.0,VALID,92.112,VALID,0.021,VALID,20.323,VALID,253.0,VALID,0.0,
2017-04-13, 02:12:07,VALID,917.658,VALID,0.0,VALID,92.115,VALID,0.021,VALID,20.342,VALID,253.0,VALID,0.0,
2017-04-13, 02:13:07,VALID,917.67,VALID,0.0,VALID,91.844,VALID,0.013,VALID,20.346,VALID,313.0,VALID,0.207,
2017-04-13, 02:14:07,VALID,917.657,VALID,0.0,VALID,92.184,VALID,0.028,VALID,20.343,VALID,341.0,VALID,0.194,
2017-04-13, 02:15:07,VALID,917.651,VALID,0.0,VALID,92.63,VALID,0.017,VALID,20.337,VALID,342.0,VALID,0.02,
2017-04-13, 02:16:07,VALID,917.658,VALID,0.0,VALID,92.899,VALID,0.017,VALID,20.316,VALID,342.0,VALID,0.111,
2017-04-13, 02:17:07,VALID,917.667,VALID,0.0,VALID,93.404,VALID,0.027,VALID,20.303,VALID,342.0,VALID,0.062,
2017-04-13, 02:18:07,VALID,917.651,VALID,0.0,VALID,93.478,VALID,0.025,VALID,20.287,VALID,342.0,VALID,0.0,
2017-04-13, 02:19:07,VALID,917.648,VALID,0.0,VALID,93.149,VALID,0.021,VALID,20.278,VALID,343.0,VALID,0.016,
2017-04-13, 02:20:07,VALID,917.655,VALID,0.0,VALID,93.397,VALID,0.029,VALID,20.276,VALID,270.0,VALID,0.1,
2017-04-13, 02:21:07,VALID,917.651,VALID,0.0,VALID,93.375,VALID,0.011,VALID,20.235,VALID,254.0,VALID,0.463,
2017-04-13, 02:22:07,VALID,917.648,VALID,0.0,VALID,93.663,VALID,0.014,VALID,20.199,VALID,313.0,VALID,0.52,
2017-04-13, 02:23:07,VALID,917.646,VALID,0.0,VALID,94.504,VALID,0.008,VALID,20.171,VALID,317.0,VALID,0.454,
2017-04-13, 02:24:07,VALID,917.675,VALID,0.0,VALID,94.417,VALID,0.009,VALID,20.132,VALID,33.0,VALID,0.288,
2017-04-13, 02:25:07,VALID,917.67,VALID,0.0,VALID,94.879,VALID,0.001,VALID,20.126,VALID,318.0,VALID,0.096,
2017-04-13, 02:26:07,VALID,917.656,VALID,0.0,VALID,94.632,VALID,-0.023,VALID,20.089,VALID,209.0,VALID,0.313,
2017-04-13, 02:27:07,VALID,917.654,VALID,0.0,VALID,94.85,VALID,-0.013,VALID,20.071,VALID,179.0,VALID,0.132,
2017-04-13, 02:28:07,VALID,917.639,VALID,0.0,VALID,95.296,VALID,-0.011,VALID,20.072,VALID,42.0,VALID,0.214,
2017-04-13, 02:29:07,VALID,917.638,VALID,0.0,VALID,95.475,VALID,-0.01,VALID,20.057,VALID,17.0,VALID,0.133,
2017-04-13, 02:30:07,VALID,917.641,VALID,0.0,VALID,95.706,VALID,-0.012,VALID,20.026,VALID,9.0,VALID,0.477,
2017-04-13, 02:31:07,VALID,917.648,VALID,0.0,VALID,95.918,VALID,-0.001,VALID,19.988,VALID,26.0,VALID,0.423,
2017-04-13, 02:32:07,VALID,917.65,VALID,0.0,VALID,96.203,VALID,0.005,VALID,19.969,VALID,18.0,VALID,0.387,
2017-04-13, 02:33:07,VALID,917.629,VALID,0.0,VALID,96.341,VALID,-0.003,VALID,19.938,VALID,357.0,VALID,0.504,
2017-04-13, 02:34:07,VALID,917.593,VALID,0.0,VALID,96.566,VALID,0.01,VALID,19.921,VALID,13.0,VALID,0.588,
2017-04-13, 02:35:07,VALID,917.567,VALID,0.0,VALID,96.673,VALID,-0.002,VALID,19.894,VALID,3.0,VALID,1.198,
2017-04-13, 02:36:07,VALID,917.562,VALID,0.0,VALID,96.485,VALID,-0.006,VALID,19.82,VALID,352.0,VALID,1.062,
2017-04-13, 02:37:07,VALID,917.573,VALID,0.0,VALID,96.356,VALID,-0.001,VALID,19.76,VALID,2.0,VALID,1.101,
2017-04-13, 02:38:07,VALID,917.606,VALID,0.0,VALID,96.512,VALID,-0.005,VALID,19.742,VALID,355.0,VALID,0.74,
2017-04-13, 02:39:07,VALID,917.619,VALID,0.0,VALID,96.678,VALID,0.011,VALID,19.733,VALID,359.0,VALID,0.242,
2017-04-13, 02:40:07,VALID,917.622,VALID,0.0,VALID,96.834,VALID,0.001,VALID,19.747,VALID,21.0,VALID,0.793,
2017-04-13, 02:41:07,VALID,917.623,VALID,0.0,VALID,96.901,VALID,-0.011,VALID,19.747,VALID,14.0,VALID,1.006,
2017-04-13, 02:42:07,VALID,917.62,VALID,0.0,VALID,97.09,VALID,-0.017,VALID,19.76,VALID,12.0,VALID,1.114,
2017-04-13, 02:43:07,VALID,917.613,VALID,0.0,VALID,97.148,VALID,-0.003,VALID,19.755,VALID,18.0,VALID,0.884,
2017-04-13, 02:44:07,VALID,917.599,VALID,0.0,VALID,97.079,VALID,-0.011,VALID,19.724,VALID,354.0,VALID,1.239,
2017-04-13, 02:45:07,VALID,917.568,VALID,0.0,VALID,97.195,VALID,-0.014,VALID,19.706,VALID,3.0,VALID,1.409,
2017-04-13, 02:46:07,VALID,917.536,VALID,0.0,VALID,97.156,VALID,-0.015,VALID,19.675,VALID,348.0,VALID,2.587,
2017-04-13, 02:47:07,VALID,917.5,VALID,0.0,VALID,97.152,VALID,-0.013,VALID,19.668,VALID,9.0,VALID,2.327,
2017-04-13, 02:48:07,VALID,917.523,VALID,0.0,VALID,97.267,VALID,-0.018,VALID,19.684,VALID,10.0,VALID,1.196,
2017-04-13, 02:49:07,VALID,917.531,VALID,0.0,VALID,97.385,VALID,-0.003,VALID,19.706,VALID,331.0,VALID,0.531,
2017-04-13, 02:50:07,VALID,917.52,VALID,0.0,VALID,97.282,VALID,-0.009,VALID,19.679,VALID,4.0,VALID,1.237,
2017-04-13, 02:51:07,VALID,917.521,VALID,0.0,VALID,97.436,VALID,-0.007,VALID,19.696,VALID,5.0,VALID,1.023,
2017-04-13, 02:52:07,VALID,917.522,VALID,0.0,VALID,97.44,VALID,-0.008,VALID,19.683,VALID,353.0,VALID,1.211,
2017-04-13, 02:53:07,VALID,917.524,VALID,0.0,VALID,97.452,VALID,-0.002,VALID,19.664,VALID,346.0,VALID,0.967,
2017-04-13, 02:54:07,VALID,917.525,VALID,0.0,VALID,97.561,VALID,0.008,VALID,19.675,VALID,11.0,VALID,1.048,
2017-04-13, 02:55:07,VALID,917.514,VALID,0.0,VALID,97.562,VALID,-0.009,VALID,19.674,VALID,1.0,VALID,0.911,
2017-04-13, 02:56:07,VALID,917.503,VALID,0.0,VALID,97.598,VALID,0.006,VALID,19.668,VALID,14.0,VALID,1.318,
2017-04-13, 02:57:07,VALID,917.511,VALID,0.0,VALID,97.723,VALID,0.006,VALID,19.701,VALID,358.0,VALID,0.854,
2017-04-13, 02:58:07,VALID,917.506,VALID,0.0,VALID,97.752,VALID,0.006,VALID,19.715,VALID,30.0,VALID,0.839,
2017-04-13, 02:59:07,VALID,917.517,VALID,0.0,VALID,97.731,VALID,-0.004,VALID,19.716,VALID,360.0,VALID,0.598,
2017-04-13, 03:00:07,VALID,917.523,VALID,0.0,VALID,97.704,VALID,-0.012,VALID,19.701,VALID,265.0,VALID,0.342,
2017-04-13, 03:01:07,VALID,917.522,VALID,0.0,VALID,97.651,VALID,-0.002,VALID,19.673,VALID,334.0,VALID,0.284,
2017-04-13, 03:02:07,VALID,917.532,VALID,0.0,VALID,97.721,VALID,0.017,VALID,19.681,VALID,335.0,VALID,0.247,
2017-04-13, 03:03:07,VALID,917.535,VALID,0.0,VALID,97.683,VALID,-0.0,VALID,19.664,VALID,283.0,VALID,0.213,
2017-04-13, 03:04:07,VALID,917.53,VALID,0.0,VALID,97.739,VALID,0.009,VALID,19.679,VALID,314.0,VALID,0.782,
2017-04-13, 03:05:07,VALID,917.536,VALID,0.0,VALID,97.795,VALID,-0.016,VALID,19.694,VALID,347.0,VALID,0.351,
2017-04-13, 03:06:07,VALID,917.539,VALID,0.0,VALID,97.785,VALID,-0.006,VALID,19.679,VALID,266.0,VALID,0.097,
2017-04-13, 03:07:07,VALID,917.544,VALID,0.0,VALID,97.812,VALID,-0.0,VALID,19.679,VALID,239.0,VALID,0.286,
2017-04-13, 03:08:07,VALID,917.532,VALID,0.0,VALID,97.889,VALID,-0.0,VALID,19.719,VALID,22.0,VALID,0.256,
2017-04-13, 03:09:07,VALID,917.544,VALID,0.0,VALID,97.852,VALID,-0.002,VALID,19.718,VALID,319.0,VALID,0.267,
2017-04-13, 03:10:07,VALID,917.547,VALID,0.0,VALID,97.822,VALID,0.017,VALID,19.706,VALID,360.0,VALID,0.381,
2017-04-13, 03:11:07,VALID,917.531,VALID,0.0,VALID,97.88,VALID,0.005,VALID,19.722,VALID,8.0,VALID,0.818,
2017-04-13, 03:12:07,VALID,917.526,VALID,0.0,VALID,97.873,VALID,-0.007,VALID,19.716,VALID,5.0,VALID,0.711,
2017-04-13, 03:13:07,VALID,917.522,VALID,0.0,VALID,97.876,VALID,0.002,VALID,19.702,VALID,15.0,VALID,0.977,
2017-04-13, 03:14:07,VALID,917.51,VALID,0.0,VALID,97.915,VALID,0.014,VALID,19.709,VALID,10.0,VALID,1.0,
2017-04-13, 03:15:07,VALID,917.514,VALID,0.0,VALID,97.941,VALID,-0.008,VALID,19.715,VALID,16.0,VALID,0.614,
2017-04-13, 03:16:07,VALID,917.529,VALID,0.0,VALID,98.034,VALID,0.005,VALID,19.759,VALID,14.0,VALID,0.371,
2017-04-13, 03:17:07,VALID,917.526,VALID,0.0,VALID,98.072,VALID,0.012,VALID,19.783,VALID,11.0,VALID,0.528,
2017-04-13, 03:18:07,VALID,917.517,VALID,0.0,VALID,97.986,VALID,0.004,VALID,19.758,VALID,18.0,VALID,1.032,
2017-04-13, 03:19:07,VALID,917.505,VALID,0.0,VALID,97.949,VALID,0.016,VALID,19.741,VALID,32.0,VALID,1.396,
2017-04-13, 03:20:07,VALID,917.504,VALID,0.0,VALID,97.979,VALID,0.022,VALID,19.737,VALID,27.0,VALID,1.359,
2017-04-13, 03:21:07,VALID,917.522,VALID,0.0,VALID,98.004,VALID,-0.004,VALID,19.732,VALID,20.0,VALID,1.135,
2017-04-13, 03:22:07,VALID,917.525,VALID,0.0,VALID,98.021,VALID,-0.021,VALID,19.733,VALID,17.0,VALID,1.014,
2017-04-13, 03:23:07,VALID,917.546,VALID,0.0,VALID,98.033,VALID,-0.021,VALID,19.733,VALID,352.0,VALID,0.851,
2017-04-13, 03:24:07,VALID,917.538,VALID,0.0,VALID,98.01,VALID,-0.039,VALID,19.716,VALID,24.0,VALID,0.899,
2017-04-13, 03:25:07,VALID,917.549,VALID,0.0,VALID,98.03,VALID,-0.028,VALID,19.708,VALID,16.0,VALID,0.725,
2017-04-13, 03:26:07,VALID,917.541,VALID,0.0,VALID,98.096,VALID,-0.043,VALID,19.738,VALID,31.0,VALID,0.434,
2017-04-13, 03:27:07,VALID,917.543,VALID,0.0,VALID,98.089,VALID,-0.028,VALID,19.742,VALID,21.0,VALID,0.684,
2017-04-13, 03:28:07,VALID,917.533,VALID,0.0,VALID,98.093,VALID,-0.017,VALID,19.75,VALID,1.0,VALID,0.515,
2017-04-13, 03:29:07,VALID,917.531,VALID,0.0,VALID,98.075,VALID,-0.008,VALID,19.745,VALID,326.0,VALID,0.417,
2017-04-13, 03:30:07,VALID,917.531,VALID,0.0,VALID,98.08,VALID,-0.013,VALID,19.734,VALID,5.0,VALID,0.927,
2017-04-13, 03:31:07,VALID,917.527,VALID,0.0,VALID,98.019,VALID,-0.013,VALID,19.7,VALID,359.0,VALID,1.052,
2017-04-13, 03:32:07,VALID,917.545,VALID,0.0,VALID,98.122,VALID,-0.024,VALID,19.722,VALID,358.0,VALID,0.95,
2017-04-13, 03:33:07,VALID,917.536,VALID,0.0,VALID,98.086,VALID,-0.009,VALID,19.71,VALID,357.0,VALID,1.246,
2017-04-13, 03:34:07,VALID,917.518,VALID,0.0,VALID,98.075,VALID,-0.018,VALID,19.689,VALID,1.0,VALID,0.725,
2017-04-13, 03:35:07,VALID,917.522,VALID,0.0,VALID,98.067,VALID,0.004,VALID,19.674,VALID,31.0,VALID,0.719,
2017-04-13, 03:36:07,VALID,917.519,VALID,0.0,VALID,98.126,VALID,-0.012,VALID,19.688,VALID,21.0,VALID,0.684,
2017-04-13, 03:37:07,VALID,917.514,VALID,0.0,VALID,98.181,VALID,-0.012,VALID,19.719,VALID,282.0,VALID,0.471,
2017-04-13, 03:38:07,VALID,917.506,VALID,0.0,VALID,98.136,VALID,-0.012,VALID,19.713,VALID,6.0,VALID,0.981,
2017-04-13, 03:39:07,VALID,917.513,VALID,0.0,VALID,98.149,VALID,-0.03,VALID,19.711,VALID,6.0,VALID,0.752,